Yoder, IN

12:20 PM EST on February 26, 2017 (GMT -0500)
Fort Wayne International

Weather History for KFWA - March, 2012

Change the Weather History Date:

Sunday, March 25, 2012

  Actual Average Record
Temperature  
Mean Temperature 62 °F 42 °F  
Max Temperature 72 °F 52 °F 79 °F (2007)
Min Temperature 51 °F 32 °F 3 °F (1974)
Degree Days  
Heating Degree Days 3 23  
Month to date heating degree days 309 696  
Since 1 July heating degree days 4294 5294  
Cooling Degree Days 0 0  
Month to date cooling degree days 27 0  
Year to date cooling degree days 27 0  
Growing Degree Days 12 (Base 50)    
Moisture  
Dew Point 54 °F    
Average Humidity 73    
Maximum Humidity 93    
Minimum Humidity 53    
Precipitation  
Precipitation T in 0.10 in 1.73 in (1904)
Month to date precipitation 2.86 2.09  
Year to date precipitation 7.96 6.39  
Snow  
Snow 0.00 in 0.10 in 4.20 in (1933)
Month to date snowfall 0.3 3.7  
Since 1 July snowfall 32.2 32.1  
Snow Depth 0.00 in    
Sea Level Pressure  
Sea Level Pressure 29.94 in    
Wind  
Wind Speed 8 mph (NW)    
Max Wind Speed 16 mph    
Max Gust Speed 22 mph    
Visibility 7 miles    
Events      
T = Trace of Precipitation, MM = Missing Value Source: NWS Daily Summary

Daily Weather History Graph

Daily Weather History Graph

Search for Another Location

Airport or City:

Trip Planner

Search our weather history database for the weather conditions in past years. The results will help you decide how hot, cold, wet, or windy it might be!

Date:

Astronomy

Mar. 25, 2012 Rise Set
Actual Time 7:34 AM EDT 7:58 PM EDT
Civil Twilight 7:07 AM EDT 8:26 PM EDT
Nautical Twilight 6:35 AM EDT 8:58 PM EDT
Astronomical Twilight 6:02 AM EDT 9:32 PM EDT
Moon 8:45 AM EDT (3/25) 11:15 PM EDT (3/25)
Length of Visible Light 13h 18m
Length of Day
12h 23m
Waxing Crescent, 8% of the Moon is Illuminated
Mar 25
Waxing Crescent
Mar 30
First Quarter
Apr 6
Full
Apr 13
Last Quarter
Apr 21
New

Hourly Weather History & Observations

Time (EDT) Temp. Dew Point Humidity Pressure Visibility Wind Dir Wind Speed Gust Speed Precip Events Conditions
12:24 AM 57.2 °F 55.4 °F 94% 29.88 in 6.0 mi Calm Calm - N/A   Mostly Cloudy
12:54 AM 57.9 °F 55.9 °F 93% 29.89 in 6.0 mi Calm Calm - N/A   Overcast
1:26 AM 57.2 °F 55.4 °F 94% 29.90 in 7.0 mi Calm Calm - N/A   Overcast
1:41 AM 57.2 °F 55.4 °F 94% 29.89 in 7.0 mi WNW 3.5 mph - N/A   Overcast
1:54 AM 57.9 °F 55.9 °F 93% 29.89 in 8.0 mi Calm Calm - N/A   Overcast
2:21 AM 57.2 °F 55.4 °F 94% 29.90 in 6.0 mi WNW 5.8 mph - N/A   Overcast
2:31 AM 57.2 °F 55.4 °F 94% 29.90 in 5.0 mi WNW 5.8 mph - N/A   Overcast
2:38 AM 57.2 °F 55.4 °F 94% 29.90 in 6.0 mi WNW 3.5 mph - N/A   Overcast
2:46 AM 57.2 °F 55.4 °F 94% 29.90 in 6.0 mi WNW 4.6 mph - N/A   Overcast
2:54 AM 57.9 °F 55.9 °F 93% 29.90 in 5.0 mi WNW 5.8 mph - N/A   Overcast
3:32 AM 57.2 °F 55.4 °F 94% 29.90 in 4.0 mi NNW 9.2 mph - 0.00 in   Light Drizzle
3:54 AM 57.0 °F 55.9 °F 96% 29.89 in 5.0 mi NNW 6.9 mph - 0.00 in   Light Drizzle
4:54 AM 57.0 °F 55.9 °F 96% 29.89 in 6.0 mi Calm Calm - 0.00 in   Overcast
5:32 AM 57.2 °F 55.4 °F 94% 29.91 in 4.0 mi NW 8.1 mph - N/A   Overcast
5:43 AM 57.2 °F 55.4 °F 94% 29.91 in 5.0 mi NNW 5.8 mph - N/A   Overcast
5:54 AM 57.0 °F 55.0 °F 93% 29.90 in 5.0 mi NNW 5.8 mph - N/A   Overcast
6:02 AM 57.2 °F 55.4 °F 94% 29.90 in 5.0 mi NW 6.9 mph - N/A   Overcast
6:54 AM 55.9 °F 54.0 °F 93% 29.92 in 5.0 mi NW 9.2 mph - N/A   Overcast
7:33 AM 55.4 °F 53.6 °F 94% 29.92 in 4.0 mi Calm Calm - N/A   Mostly Cloudy
7:54 AM 55.0 °F 53.1 °F 93% 29.93 in 2.5 mi North 3.5 mph - N/A   Mostly Cloudy
8:03 AM 53.6 °F 53.6 °F 100% 29.93 in 3.0 mi North 4.6 mph - N/A   Mostly Cloudy
8:31 AM 55.4 °F 53.6 °F 94% 29.94 in 3.0 mi NNW 5.8 mph - N/A   Mostly Cloudy
8:54 AM 55.9 °F 54.0 °F 93% 29.95 in 3.0 mi NNW 8.1 mph - N/A   Mostly Cloudy
9:54 AM 55.0 °F 53.1 °F 93% 29.96 in 3.0 mi NNW 9.2 mph - N/A   Overcast
10:54 AM 57.0 °F 54.0 °F 89% 29.98 in 4.0 mi NNW 8.1 mph - N/A   Overcast
11:32 AM 59.0 °F 53.6 °F 82% 29.99 in 7.0 mi NNW 10.4 mph - N/A   Overcast
11:54 AM 59.0 °F 54.0 °F 83% 29.99 in 7.0 mi NNW 10.4 mph - N/A   Mostly Cloudy
12:14 PM 60.8 °F 55.4 °F 82% 29.99 in 9.0 mi NW 10.4 mph - N/A   Mostly Cloudy
12:54 PM 61.0 °F 54.0 °F 78% 29.99 in 9.0 mi NNW 6.9 mph - N/A   Mostly Cloudy
1:20 PM 64.4 °F 55.4 °F 73% 29.99 in 10.0 mi NNW 10.4 mph - N/A   Scattered Clouds
1:54 PM 66.0 °F 55.0 °F 68% 29.98 in 10.0 mi Variable 4.6 mph - N/A   Mostly Cloudy
2:43 PM 66.2 °F 57.2 °F 73% 29.98 in 10.0 mi NNW 10.4 mph 17.3 mph N/A   Mostly Cloudy
2:54 PM 68.0 °F 57.0 °F 68% 29.97 in 10.0 mi NNW 10.4 mph - N/A   Mostly Cloudy
3:14 PM 69.8 °F 57.2 °F 64% 29.97 in 10.0 mi North 10.4 mph - N/A   Scattered Clouds
3:54 PM 70.0 °F 55.9 °F 61% 29.96 in 10.0 mi NNW 10.4 mph - N/A   Mostly Cloudy
4:54 PM 71.1 °F 55.0 °F 57% 29.95 in 10.0 mi NNW 6.9 mph - N/A   Scattered Clouds
5:54 PM 71.1 °F 54.0 °F 55% 29.95 in 10.0 mi NNW 9.2 mph - N/A   Scattered Clouds
6:54 PM 69.1 °F 53.1 °F 57% 29.97 in 10.0 mi NNW 8.1 mph - N/A   Partly Cloudy
7:54 PM 66.0 °F 50.0 °F 56% 29.98 in 10.0 mi NNW 11.5 mph - N/A   Scattered Clouds
8:54 PM 63.0 °F 52.0 °F 67% 30.01 in 10.0 mi NNW 13.8 mph 21.9 mph N/A   Partly Cloudy
9:54 PM 60.1 °F 52.0 °F 75% 30.03 in 10.0 mi NW 10.4 mph - N/A   Clear
10:54 PM 57.0 °F 52.0 °F 83% 30.04 in 10.0 mi NW 8.1 mph - N/A   Clear
11:54 PM 55.0 °F 46.0 °F 72% 30.06 in 10.0 mi NW 10.4 mph - N/A   Clear